Location: Lake Forest Estates
(37.9451°N, 90.2085°W)
Time: 11:17:09
(UTC+00:00)

ISS - Visible Passes

Search period start: 08 November 2024 00:00
Search period end: 18 November 2024 00:00
Orbit: 406 x 419 km, 51.6° (Epoch: 08 November)

Date Brightness Start Highest point End Pass type
(mag) Time Alt. Az. Time Alt. Az. Time Alt. Az.
11 Nov -1.1 00:33:13 10° S 00:33:31 11° S 00:33:31 11° S visible
12 Nov -0.6 01:18:49 10° SW 01:19:11 13° SW 01:19:11 13° SW visible
13 Nov -3.2 00:29:07 10° SSW 00:31:51 46° S 00:31:51 46° S visible
13 Nov -2.5 23:39:44 10° SSW 23:42:36 27° SE 23:44:24 17° E visible
14 Nov -0.8 01:16:10 10° W 01:17:14 17° W 01:17:14 17° W visible
15 Nov -3.3 00:25:54 10° WSW 00:29:10 52° NW 00:29:37 47° N visible
15 Nov -3.8 23:35:52 10° SW 23:39:13 82° SE 23:41:54 15° NE visible
16 Nov -0.7 01:14:00 10° WNW 01:14:43 13° NW 01:14:43 13° NW visible
17 Nov -1.9 00:23:15 10° W 00:26:01 23° NNW 00:26:52 21° N visible
17 Nov -2.6 23:32:42 10° WSW 23:35:50 36° NNW 23:38:55 10° NE visible
